�������l�o���
Date,Time,MP-1(��Sv/h),MP-2(��Sv/h),MP-3(��Sv/h),MP-4(��Sv/h),MP-5(��Sv/h),MP-6(��Sv/h),MP-7(��Sv/h),MP-8(��Sv/h),����,����(m/s),���J
2021/01/29,00:00,0.660,0.931,0.603,1.192,0.831,0.381,0.668,0.629,�k��,6.1,�L
2021/01/29,00:10,0.659,0.931,0.602,1.192,0.830,0.381,0.668,0.629,�k��,6.1,�L
2021/01/29,00:20,0.659,0.932,0.602,1.191,0.831,0.380,0.667,0.628,�k��,6.7,�L
2021/01/29,00:30,0.660,0.931,0.602,1.186,0.830,0.381,0.668,0.627,�k��,6.6,�L
2021/01/29,00:40,0.659,0.931,0.601,1.188,0.832,0.379,0.666,0.627,�k��,6.7,�L
2021/01/29,00:50,0.660,0.929,0.600,1.186,0.830,0.380,0.668,0.629,�k��,7.7,�L
2021/01/29,01:00,0.659,0.929,0.602,1.186,0.828,0.379,0.667,0.628,���k��,7.1,�L
2021/01/29,01:10,0.658,0.926,0.603,1.186,0.826,0.380,0.666,0.628,�k��,5.8,�L
2021/01/29,01:20,0.660,0.928,0.600,1.184,0.828,0.380,0.667,0.627,���k��,6.2,�L
2021/01/29,01:30,0.659,0.928,0.599,1.183,0.825,0.380,0.667,0.627,�k��,5.5,��
2021/01/29,01:40,0.658,0.929,0.601,1.182,0.825,0.381,0.667,0.628,�k��,5.2,��
2021/01/29,01:50,0.657,0.926,0.599,1.183,0.828,0.380,0.666,0.627,�k��,4.3,��
2021/01/29,02:00,0.659,0.928,0.599,1.183,0.824,0.377,0.666,0.629,�k��,3.6,�L
2021/01/29,02:10,0.657,0.927,0.599,1.182,0.827,0.377,0.665,0.627,�k��,3.7,�L
2021/01/29,02:20,0.655,0.926,0.599,1.183,0.824,0.378,0.666,0.627,�k�k��,3.7,�L
2021/01/29,02:30,0.657,0.926,0.599,1.183,0.825,0.377,0.667,0.627,�k�k��,3.3,�L
2021/01/29,02:40,0.657,0.926,0.598,1.181,0.825,0.375,0.665,0.628,�k�k��,3.2,��
2021/01/29,02:50,0.657,0.929,0.598,1.181,0.826,0.376,0.666,0.627,�k��,2.6,��
2021/01/29,03:00,0.655,0.929,0.597,1.180,0.825,0.375,0.665,0.626,�k�k��,1.2,��
2021/01/29,03:10,0.657,0.925,0.598,1.182,0.826,0.376,0.666,0.626,�k,1.2,��
2021/01/29,03:20,0.658,0.929,0.597,1.181,0.826,0.375,0.666,0.628,�k,2.3,��
2021/01/29,03:30,0.655,0.927,0.598,1.182,0.825,0.375,0.665,0.626,�k�k��,1.7,��
2021/01/29,03:40,0.656,0.926,0.597,1.181,0.825,0.377,0.665,0.627,�k�k��,2.6,��
2021/01/29,03:50,0.656,0.925,0.596,1.181,0.824,0.378,0.665,0.628,�k�k��,1.2,��
2021/01/29,04:00,0.656,0.929,0.597,1.181,0.826,0.376,0.666,0.627,-,CALM,��
2021/01/29,04:10,0.656,0.925,0.598,1.180,0.826,0.377,0.666,0.627,�k�k��,0.6,��
2021/01/29,04:20,0.655,0.929,0.598,1.180,0.827,0.377,0.666,0.627,�k,1.2,��
2021/01/29,04:30,0.658,0.928,0.599,1.183,0.827,0.377,0.665,0.627,���k��,5.5,�L
2021/01/29,04:40,0.655,0.929,0.599,1.180,0.826,0.377,0.664,0.628,���쐼,2.5,�L
2021/01/29,04:50,0.657,0.927,0.599,1.179,0.826,0.377,0.666,0.625,��,5.5,�L
2021/01/29,05:00,0.659,0.925,0.598,1.179,0.827,0.376,0.665,0.627,��,5.4,�L
2021/01/29,05:10,0.657,0.925,0.597,1.180,0.829,0.376,0.667,0.627,��,5.9,�L
2021/01/29,05:20,0.656,0.927,0.598,1.181,0.827,0.377,0.666,0.626,���k��,6.1,��
2021/01/29,05:30,0.656,0.927,0.598,1.181,0.827,0.377,0.665,0.627,���k��,6.0,��
2021/01/29,05:40,0.656,0.927,0.598,1.182,0.827,0.377,0.668,0.627,�k�k��,3.7,��
2021/01/29,05:50,0.655,0.927,0.599,1.180,0.823,0.377,0.667,0.628,�k��,5.3,��
2021/01/29,06:00,0.657,0.927,0.599,1.181,0.827,0.377,0.666,0.627,�k��,6.9,��
2021/01/29,06:10,0.657,0.928,0.598,1.182,0.827,0.376,0.666,0.628,�k�k��,7.4,��
2021/01/29,06:20,0.655,0.930,0.601,1.181,0.826,0.377,0.666,0.628,�k��,8.8,��
2021/01/29,06:30,0.657,0.929,0.597,1.183,0.826,0.376,0.666,0.627,�k��,9.9,��
2021/01/29,06:40,0.656,0.928,0.600,1.181,0.827,0.376,0.665,0.627,�k��,7.4,��
2021/01/29,06:50,0.657,0.928,0.597,1.181,0.828,0.375,0.666,0.628,�k��,7.4,��
2021/01/29,07:00,0.658,0.930,0.600,1.182,0.827,0.377,0.666,0.628,���k��,10.0,��
2021/01/29,07:10,0.655,0.929,0.598,1.182,0.827,0.378,0.667,0.628,���k��,11.4,��
2021/01/29,07:20,0.658,0.929,0.598,1.183,0.829,0.376,0.669,0.626,���k��,10.4,��
2021/01/29,07:30,0.658,0.930,0.597,1.185,0.828,0.376,0.669,0.629,���k��,9.8,��
2021/01/29,07:40,0.657,0.930,0.597,1.185,0.830,0.377,0.667,0.629,���k��,10.0,��
2021/01/29,07:50,0.658,0.930,0.598,1.185,0.828,0.377,0.669,0.628,���k��,11.4,��
2021/01/29,08:00,0.659,0.930,0.598,1.186,0.828,0.377,0.669,0.628,���k��,11.6,��
2021/01/29,08:10,0.659,0.928,0.598,1.184,0.830,0.376,0.667,0.629,��,12.0,��
2021/01/29,08:20,0.660,0.932,0.597,1.186,0.830,0.377,0.667,0.630,���k��,8.6,��
2021/01/29,08:30,0.657,0.931,0.599,1.185,0.828,0.376,0.668,0.629,��,8.9,��
2021/01/29,08:40,0.659,0.928,0.598,1.188,0.830,0.376,0.669,0.628,��,13.0,��
2021/01/29,08:50,0.660,0.928,0.596,1.188,0.830,0.376,0.669,0.628,���k��,10.3,��
2021/01/29,09:00,0.658,0.931,0.598,1.189,0.830,0.376,0.667,0.628,��,7.7,��
2021/01/29,09:10,0.657,0.928,0.598,1.186,0.830,0.375,0.669,0.630,���k��,6.4,��
2021/01/29,09:20,0.658,0.930,0.598,1.189,0.831,0.377,0.668,0.629,�k��,6.7,��
2021/01/29,09:30,0.658,0.928,0.599,1.189,0.831,0.376,0.668,0.629,�k��,6.9,��
2021/01/29,09:40,0.658,0.930,0.600,1.187,0.829,0.378,0.668,0.630,�k��,5.5,��
2021/01/29,09:50,0.660,0.930,0.601,1.188,0.830,0.378,0.669,0.630,�k��,2.8,��
2021/01/29,10:00,0.661,0.929,0.600,1.189,0.833,0.378,0.669,0.629,�k��,5.1,��
2021/01/29,10:10,0.660,0.931,0.601,1.191,0.831,0.378,0.670,0.629,�k��,6.8,��
2021/01/29,10:20,0.661,0.928,0.601,1.187,0.834,0.377,0.669,0.628,���k��,7.9,��
2021/01/29,10:30,0.660,0.932,0.601,1.188,0.831,0.376,0.668,0.629,��,9.3,��
2021/01/29,10:40,0.660,0.935,0.601,1.189,0.831,0.378,0.667,0.629,���k��,10.7,��
2021/01/29,10:50,0.659,0.933,0.604,1.187,0.831,0.377,0.666,0.629,��,7.1,��
2021/01/29,11:00,0.661,0.935,0.603,1.187,0.834,0.377,0.669,0.628,��,6.1,��
2021/01/29,11:10,0.660,0.935,0.604,1.187,0.832,0.377,0.668,0.629,��,8.5,��
2021/01/29,11:20,0.660,0.935,0.602,1.189,0.831,0.378,0.667,0.629,���쐼,9.0,��
2021/01/29,11:30,0.662,0.935,0.601,1.192,0.834,0.377,0.668,0.630,��,10.2,��
2021/01/29,11:40,0.661,0.935,0.604,1.191,0.834,0.379,0.668,0.629,��,8.5,��
2021/01/29,11:50,0.664,0.936,0.603,1.189,0.834,0.379,0.668,0.630,��,7.8,��
2021/01/29,12:00,0.661,0.937,0.603,1.188,0.834,0.379,0.667,0.630,��,7.2,��
2021/01/29,12:10,0.662,0.938,0.603,1.191,0.834,0.377,0.668,0.629,��,7.5,��
2021/01/29,12:20,0.662,0.937,0.604,1.190,0.836,0.379,0.667,0.631,���k��,7.7,��
2021/01/29,12:30,0.662,0.937,0.602,1.193,0.832,0.377,0.667,0.631,��,7.7,��
2021/01/29,12:40,0.662,0.938,0.605,1.190,0.837,0.378,0.667,0.629,��,5.2,��
2021/01/29,12:50,0.662,0.937,0.605,1.193,0.835,0.378,0.668,0.631,���k��,3.8,��
2021/01/29,13:00,0.661,0.936,0.604,1.192,0.837,0.378,0.666,0.630,�k��,5.6,��
2021/01/29,13:10,0.662,0.932,0.604,1.192,0.838,0.380,0.668,0.631,���k��,8.4,��
2021/01/29,13:20,0.665,0.936,0.605,1.193,0.837,0.378,0.668,0.631,���k��,8.1,��
2021/01/29,13:30,0.665,0.940,0.604,1.193,0.838,0.378,0.668,0.631,���k��,8.7,��
2021/01/29,13:40,0.665,0.937,0.604,1.193,0.839,0.379,0.668,0.631,���k��,8.6,��
2021/01/29,13:50,0.664,0.938,0.606,1.191,0.836,0.380,0.669,0.632,���k��,4.6,��
2021/01/29,14:00,0.665,0.940,0.605,1.193,0.836,0.380,0.669,0.630,��,8.6,��
2021/01/29,14:10,0.664,0.940,0.607,1.193,0.837,0.378,0.669,0.630,��,7.1,��
2021/01/29,14:20,0.663,0.939,0.605,1.191,0.834,0.379,0.669,0.628,��,8.4,��
2021/01/29,14:30,0.663,0.939,0.606,1.194,0.835,0.378,0.669,0.628,��,7.9,��
2021/01/29,14:40,0.665,0.938,0.606,1.194,0.837,0.378,0.669,0.629,��,7.6,��
2021/01/29,14:50,0.663,0.939,0.608,1.192,0.838,0.377,0.669,0.628,���k��,6.3,��
2021/01/29,15:00,0.662,0.936,0.606,1.192,0.838,0.379,0.670,0.627,��,5.4,��
2021/01/29,15:10,0.661,0.936,0.607,1.194,0.837,0.378,0.670,0.629,��,6.9,��
2021/01/29,15:20,0.663,0.939,0.605,1.196,0.838,0.378,0.671,0.629,��,7.6,��
2021/01/29,15:30,0.663,0.941,0.605,1.195,0.839,0.377,0.669,0.631,���k��,11.6,��
2021/01/29,15:40,0.662,0.941,0.604,1.196,0.838,0.377,0.673,0.630,��,10.3,��
2021/01/29,15:50,0.663,0.940,0.604,1.193,0.838,0.378,0.669,0.629,��,10.0,��
2021/01/29,16:00,0.663,0.940,0.606,1.194,0.837,0.376,0.671,0.630,��,9.6,��
2021/01/29,16:10,0.663,0.942,0.603,1.191,0.838,0.378,0.670,0.630,��,10.5,��
2021/01/29,16:20,0.662,0.943,0.602,1.193,0.839,0.377,0.669,0.630,��,11.1,��
2021/01/29,16:30,0.661,0.942,0.603,1.194,0.838,0.377,0.670,0.631,��,8.4,��
2021/01/29,16:40,0.662,0.941,0.603,1.194,0.837,0.378,0.668,0.629,���k��,10.5,��
2021/01/29,16:50,0.662,0.941,0.601,1.197,0.839,0.376,0.669,0.631,��,8.2,��
2021/01/29,17:00,0.660,0.942,0.602,1.193,0.836,0.378,0.670,0.629,��,9.4,��
2021/01/29,17:10,0.662,0.940,0.603,1.191,0.838,0.377,0.668,0.627,���쐼,8.2,��
2021/01/29,17:20,0.661,0.942,0.603,1.191,0.835,0.377,0.670,0.630,��,7.4,��
2021/01/29,17:30,0.661,0.941,0.603,1.192,0.835,0.376,0.668,0.628,��,9.2,��
2021/01/29,17:40,0.660,0.941,0.602,1.195,0.835,0.375,0.669,0.630,���쐼,7.3,��
2021/01/29,17:50,0.661,0.940,0.602,1.192,0.836,0.376,0.669,0.630,��,7.8,��
2021/01/29,18:00,0.660,0.941,0.602,1.195,0.837,0.376,0.669,0.629,���쐼,6.9,��
2021/01/29,18:10,0.658,0.939,0.603,1.196,0.835,0.377,0.667,0.629,���쐼,7.2,��
2021/01/29,18:20,0.659,0.943,0.602,1.194,0.835,0.374,0.667,0.630,���쐼,7.2,��
2021/01/29,18:30,0.660,0.941,0.601,1.192,0.834,0.376,0.667,0.630,���쐼,7.2,��
2021/01/29,18:40,0.659,0.940,0.602,1.193,0.835,0.375,0.668,0.629,���쐼,6.7,��
2021/01/29,18:50,0.658,0.940,0.602,1.193,0.833,0.376,0.668,0.630,���쐼,6.8,��
2021/01/29,19:00,0.659,0.940,0.603,1.194,0.835,0.375,0.668,0.628,���쐼,6.3,��
2021/01/29,19:10,0.659,0.943,0.604,1.194,0.834,0.376,0.667,0.629,���쐼,6.9,��
2021/01/29,19:20,0.658,0.941,0.603,1.194,0.837,0.376,0.668,0.630,���쐼,7.5,��
2021/01/29,19:30,0.659,0.941,0.604,1.193,0.837,0.377,0.669,0.629,���쐼,7.2,��
2021/01/29,19:40,0.660,0.942,0.604,1.195,0.833,0.376,0.668,0.628,���쐼,6.4,��
2021/01/29,19:50,0.659,0.942,0.604,1.192,0.837,0.374,0.668,0.629,���쐼,7.5,��
2021/01/29,20:00,0.659,0.940,0.605,1.193,0.837,0.376,0.668,0.629,�쐼,6.7,��
2021/01/29,20:10,0.659,0.941,0.604,1.193,0.834,0.377,0.668,0.628,��,6.6,��
2021/01/29,20:20,0.660,0.941,0.603,1.194,0.836,0.377,0.666,0.629,���쐼,6.1,��
2021/01/29,20:30,0.658,0.940,0.604,1.194,0.834,0.377,0.669,0.629,���쐼,5.5,��
2021/01/29,20:40,0.659,0.941,0.604,1.196,0.836,0.377,0.669,0.630,��,5.8,��
2021/01/29,20:50,0.659,0.939,0.604,1.192,0.837,0.377,0.667,0.631,���쐼,5.7,��
2021/01/29,21:00,0.660,0.939,0.603,1.191,0.835,0.377,0.670,0.629,��,5.3,��
2021/01/29,21:10,0.661,0.937,0.603,1.193,0.837,0.377,0.668,0.630,���쐼,6.4,��
2021/01/29,21:20,0.660,0.940,0.603,1.195,0.839,0.376,0.669,0.628,���쐼,5.9,��
2021/01/29,21:30,0.660,0.943,0.605,1.194,0.837,0.378,0.667,0.629,���쐼,5.7,��
2021/01/29,21:40,0.660,0.940,0.604,1.194,0.839,0.377,0.668,0.628,��,5.5,��
2021/01/29,21:50,0.662,0.943,0.605,1.194,0.838,0.377,0.669,0.629,���쐼,6.2,��
2021/01/29,22:00,0.660,0.941,0.603,1.192,0.838,0.378,0.668,0.629,���쐼,6.1,��
2021/01/29,22:10,0.659,0.943,0.602,1.194,0.838,0.376,0.668,0.629,���쐼,6.8,��
2021/01/29,22:20,0.660,0.942,0.605,1.195,0.837,0.376,0.668,0.628,��,6.9,��
2021/01/29,22:30,0.660,0.940,0.605,1.193,0.838,0.376,0.667,0.630,���쐼,6.0,��
2021/01/29,22:40,0.659,0.940,0.604,1.193,0.838,0.377,0.668,0.628,���쐼,6.6,��
2021/01/29,22:50,0.658,0.939,0.604,1.193,0.837,0.376,0.668,0.628,���쐼,5.8,��
2021/01/29,23:00,0.661,0.938,0.605,1.195,0.836,0.376,0.668,0.628,���쐼,6.7,��
2021/01/29,23:10,0.659,0.941,0.604,1.192,0.839,0.376,0.669,0.629,���쐼,5.8,��
2021/01/29,23:20,0.660,0.940,0.604,1.192,0.834,0.377,0.668,0.628,��,6.3,��
2021/01/29,23:30,0.659,0.941,0.604,1.194,0.838,0.376,0.668,0.629,��,6.1,��
2021/01/29,23:40,0.661,0.942,0.604,1.193,0.837,0.377,0.669,0.629,��,5.9,��
2021/01/29,23:50,0.660,0.939,0.603,1.195,0.837,0.376,0.668,0.631,��,7.1,��
